WWA752 CYYZ-CYYT

Flight info

Callsign WWA752
Flight time N/A
Altitude 37000
Route VERDO7 LORKA Q907 MIVAD AVALN5
Aircraft A319/M-SDE3FGHIRWY/LB1

Departure

Time 2026-04-29 23:01
Airport Toronto Pearson International Airport (CYYZ)

Arrival

Time N/A
Airport St. John's International Airport (CYYT)
Time Latitude Longitude Altitude Speed Heading
2026-04-29 22:27 43.68488 -79.62059 568 ft 0 kts 60°
2026-04-29 22:46 43.68486 -79.62064 561 ft 3 kts 60°
2026-04-29 22:46 43.68473 -79.62096 567 ft 4 kts 60°
2026-04-29 22:46 43.68463 -79.62123 565 ft 4 kts 80°
2026-04-29 22:46 43.68466 -79.62157 569 ft 4 kts 120°
2026-04-29 22:47 43.68482 -79.62185 567 ft 4 kts 147°
2026-04-29 22:47 43.68474 -79.62177 565 ft 4 kts 147°
2026-04-29 22:47 43.68449 -79.62169 565 ft 4 kts 182°
2026-04-29 22:47 43.68437 -79.62174 565 ft 0 kts 195°
2026-04-29 22:50 43.68436 -79.62174 565 ft 0 kts 195°
2026-04-29 22:50 43.68433 -79.62175 564 ft 1 kts 195°
2026-04-29 22:50 43.68414 -79.62182 561 ft 5 kts 195°
2026-04-29 22:51 43.68373 -79.62203 565 ft 7 kts 210°
2026-04-29 22:51 43.68332 -79.62249 565 ft 8 kts 219°
2026-04-29 22:51 43.68281 -79.62391 562 ft 9 kts 240°
2026-04-29 22:52 43.68237 -79.62459 564 ft 10 kts 227°
2026-04-29 22:52 43.68193 -79.62524 565 ft 9 kts 227°
2026-04-29 22:52 43.68152 -79.62583 572 ft 8 kts 226°
2026-04-29 22:52 43.68108 -79.62649 572 ft 12 kts 227°
2026-04-29 22:53 43.68032 -79.62758 569 ft 19 kts 226°
2026-04-29 22:53 43.67957 -79.62886 570 ft 12 kts 270°
2026-04-29 22:53 43.68015 -79.62986 567 ft 17 kts 314°
2026-04-29 22:53 43.68117 -79.63119 568 ft 24 kts 317°
2026-04-29 22:54 43.68257 -79.63299 567 ft 30 kts 316°
2026-04-29 22:54 43.68411 -79.63500 566 ft 30 kts 317°
2026-04-29 22:54 43.68560 -79.63697 567 ft 26 kts 316°
2026-04-29 22:54 43.68655 -79.63829 569 ft 18 kts 297°
2026-04-29 22:55 43.68672 -79.64005 566 ft 20 kts 271°
2026-04-29 22:55 43.68674 -79.64149 567 ft 12 kts 264°
2026-04-29 22:55 43.68626 -79.64246 569 ft 13 kts 226°
2026-04-29 22:55 43.68551 -79.64352 565 ft 17 kts 226°
2026-04-29 22:56 43.68464 -79.64479 566 ft 19 kts 227°
2026-04-29 22:56 43.68375 -79.64609 566 ft 18 kts 227°
2026-04-29 22:56 43.68293 -79.64729 572 ft 17 kts 226°
2026-04-29 22:56 43.68208 -79.64851 570 ft 19 kts 226°
2026-04-29 22:57 43.68114 -79.64988 572 ft 20 kts 226°
2026-04-29 22:57 43.68011 -79.65138 569 ft 23 kts 226°
2026-04-29 22:57 43.67902 -79.65294 565 ft 22 kts 226°
2026-04-29 22:57 43.67795 -79.65449 568 ft 21 kts 226°
2026-04-29 22:58 43.67699 -79.65588 571 ft 20 kts 226°
2026-04-29 22:58 43.67606 -79.65722 570 ft 19 kts 226°
2026-04-29 22:58 43.67515 -79.65852 569 ft 20 kts 226°
2026-04-29 22:58 43.67418 -79.65990 568 ft 20 kts 226°
2026-04-29 22:59 43.67375 -79.66056 572 ft 6 kts 229°
2026-04-29 22:59 43.67331 -79.66124 569 ft 13 kts 227°
2026-04-29 22:59 43.67280 -79.66222 571 ft 10 kts 262°
2026-04-29 22:59 43.67314 -79.66294 561 ft 12 kts 320°
2026-04-29 23:00 43.67327 -79.66308 561 ft 2 kts 322°
2026-04-29 23:00 43.67380 -79.66352 567 ft 12 kts 330°
2026-04-29 23:00 43.67464 -79.66332 565 ft 16 kts 43°
2026-04-29 23:00 43.67678 -79.66027 569 ft 80 kts 46°
2026-04-29 23:01 43.68221 -79.65241 567 ft 143 kts 46°
2026-04-29 23:01 43.68965 -79.64124 950 ft 160 kts 44°
2026-04-29 23:01 43.69760 -79.63052 1701 ft 160 kts 37°
2026-04-29 23:01 43.70630 -79.62085 2413 ft 163 kts 37°
2026-04-29 23:02 43.71562 -79.61065 2885 ft 180 kts 35°
2026-04-29 23:02 43.72589 -79.59960 3381 ft 193 kts 35°
2026-04-29 23:02 43.73687 -79.58789 3899 ft 206 kts 36°
2026-04-29 23:02 43.74671 -79.57137 4138 ft 245 kts 62°
2026-04-29 23:03 43.74988 -79.54685 4652 ft 274 kts 92°
2026-04-29 23:03 43.74454 -79.52104 5460 ft 286 kts 116°
2026-04-29 23:03 43.73462 -79.49696 6474 ft 285 kts 120°
2026-04-29 23:03 43.72483 -79.47334 7545 ft 285 kts 121°
2026-04-29 23:04 43.71550 -79.44882 8422 ft 290 kts 119°
2026-04-29 23:04 43.70666 -79.42361 9330 ft 294 kts 118°
2026-04-29 23:04 43.69811 -79.39774 10180 ft 299 kts 118°
2026-04-29 23:04 43.68931 -79.37036 10500 ft 323 kts 117°
2026-04-29 23:05 43.67994 -79.34086 10762 ft 347 kts 117°
2026-04-29 23:05 43.66998 -79.30934 11037 ft 367 kts 116°
2026-04-29 23:05 43.66129 -79.27570 11628 ft 378 kts 106°
2026-04-29 23:05 43.65749 -79.23940 12323 ft 386 kts 94°
2026-04-29 23:06 43.65910 -79.20206 13033 ft 393 kts 82°
2026-04-29 23:06 43.66631 -79.16543 13729 ft 400 kts 69°
2026-04-29 23:06 43.67772 -79.13010 14325 ft 405 kts 66°
2026-04-29 23:06 43.68936 -79.09472 14884 ft 411 kts 67°
2026-04-29 23:07 43.70118 -79.05873 15448 ft 416 kts 67°
2026-04-29 23:07 43.71219 -79.02159 15988 ft 420 kts 75°
2026-04-29 23:07 43.72122 -78.98298 16541 ft 425 kts 76°
2026-04-29 23:07 43.73034 -78.94378 17088 ft 431 kts 76°
2026-04-29 23:08 43.73958 -78.90411 17635 ft 437 kts 77°
2026-04-29 23:08 43.74899 -78.86382 18176 ft 443 kts 77°
2026-04-29 23:08 43.75848 -78.82316 18661 ft 447 kts 77°
2026-04-29 23:08 43.76809 -78.78206 19181 ft 450 kts 76°
2026-04-29 23:09 43.78016 -78.74170 19690 ft 458 kts 68°
2026-04-29 23:09 43.79398 -78.70198 20210 ft 460 kts 68°
2026-04-29 23:09 43.80792 -78.66196 20727 ft 461 kts 68°
2026-04-29 23:09 43.82182 -78.62201 21277 ft 462 kts 69°
2026-04-29 23:10 43.83571 -78.58180 21766 ft 464 kts 69°
2026-04-29 23:10 43.84964 -78.54130 22258 ft 467 kts 69°
2026-04-29 23:10 43.86363 -78.50048 22662 ft 471 kts 69°
2026-04-29 23:10 43.87772 -78.45938 23106 ft 474 kts 69°
2026-04-29 23:11 43.89193 -78.41800 23533 ft 476 kts 69°
2026-04-29 23:11 43.90620 -78.37650 23903 ft 478 kts 70°
2026-04-29 23:11 43.92052 -78.33479 24294 ft 480 kts 70°
2026-04-29 23:11 43.93487 -78.29285 24659 ft 482 kts 70°
2026-04-29 23:12 43.94923 -78.25072 25041 ft 484 kts 70°
2026-04-29 23:12 43.96361 -78.20850 25400 ft 486 kts 70°
2026-04-29 23:12 43.97808 -78.16605 25764 ft 487 kts 70°
2026-04-29 23:12 43.99258 -78.12340 26120 ft 489 kts 70°
2026-04-29 23:13 44.00714 -78.08051 26444 ft 492 kts 70°
2026-04-29 23:13 44.02171 -78.03740 26763 ft 494 kts 70°
2026-04-29 23:13 44.03635 -77.99402 27090 ft 496 kts 70°
2026-04-29 23:13 44.05104 -77.95049 27373 ft 498 kts 70°
2026-04-29 23:14 44.06576 -77.90684 27737 ft 499 kts 70°
2026-04-29 23:14 44.08047 -77.86314 28065 ft 500 kts 70°
2026-04-29 23:14 44.09523 -77.81927 28390 ft 502 kts 70°
2026-04-29 23:14 44.11000 -77.77531 28827 ft 500 kts 70°
2026-04-29 23:15 44.12466 -77.73160 29295 ft 498 kts 71°
2026-04-29 23:15 44.13892 -77.68897 29753 ft 497 kts 71°
2026-04-29 23:15 44.15379 -77.64434 30173 ft 495 kts 71°
2026-04-29 23:15 44.16827 -77.60083 30519 ft 495 kts 71°
2026-04-29 23:16 44.18270 -77.55737 30836 ft 495 kts 70°
2026-04-29 23:16 44.19725 -77.51382 31167 ft 497 kts 69°
2026-04-29 23:16 44.21456 -77.47180 31487 ft 502 kts 62°
2026-04-29 23:16 44.23318 -77.43063 31811 ft 502 kts 62°
2026-04-29 23:17 44.25178 -77.38938 32151 ft 503 kts 62°
2026-04-29 23:17 44.27037 -77.34806 32477 ft 503 kts 62°
2026-04-29 23:17 44.28895 -77.30667 32825 ft 504 kts 62°
2026-04-29 23:17 44.30757 -77.26520 33099 ft 506 kts 62°
2026-04-29 23:18 44.32627 -77.22348 33402 ft 507 kts 62°
2026-04-29 23:18 44.34496 -77.18175 33703 ft 507 kts 62°
2026-04-29 23:18 44.36366 -77.13992 34027 ft 507 kts 62°
2026-04-29 23:18 44.38231 -77.09812 34349 ft 506 kts 62°
2026-04-29 23:19 44.40090 -77.05640 34678 ft 506 kts 61°
2026-04-29 23:19 44.41948 -77.01462 35018 ft 505 kts 61°
2026-04-29 23:19 44.43801 -76.97291 35339 ft 504 kts 60°
2026-04-29 23:19 44.45647 -76.93128 35647 ft 503 kts 60°
2026-04-29 23:20 44.47491 -76.88971 35943 ft 503 kts 60°
2026-04-29 23:20 44.49311 -76.84867 36238 ft 502 kts 60°
2026-04-29 23:20 44.51169 -76.80665 36512 ft 501 kts 60°
2026-04-29 23:20 44.52998 -76.76507 36769 ft 501 kts 59°
2026-04-29 23:21 44.56631 -76.68242 36869 ft 501 kts 59°
2026-04-29 23:21 44.60300 -76.59858 36880 ft 501 kts 59°
2026-04-29 23:22 44.63923 -76.51560 36868 ft 502 kts 59°
2026-04-29 23:22 44.67592 -76.43151 36874 ft 502 kts 59°
2026-04-29 23:23 44.71242 -76.34780 36868 ft 502 kts 59°
2026-04-29 23:23 44.74845 -76.26456 36897 ft 502 kts 60°
2026-04-29 23:24 44.77956 -76.17694 36868 ft 500 kts 72°
2026-04-29 23:24 44.80333 -76.08503 36875 ft 500 kts 72°
2026-04-29 23:25 44.82734 -75.99294 36874 ft 501 kts 72°
2026-04-29 23:25 44.85123 -75.90084 36881 ft 501 kts 72°
2026-04-29 23:26 44.87504 -75.80860 36867 ft 500 kts 72°
2026-04-29 23:26 44.89869 -75.71631 36849 ft 500 kts 72°
2026-04-29 23:27 44.92222 -75.62406 36850 ft 500 kts 72°
2026-04-29 23:27 44.94574 -75.53162 36852 ft 500 kts 72°
2026-04-29 23:28 44.96909 -75.43923 36850 ft 500 kts 72°
2026-04-29 23:28 44.99248 -75.34681 36853 ft 500 kts 72°
2026-04-29 23:29 45.01574 -75.25428 36840 ft 499 kts 72°
2026-04-29 23:29 45.03893 -75.16181 36843 ft 499 kts 72°
2026-04-29 23:30 45.05814 -75.08485 36836 ft 499 kts 72°
2026-04-29 23:30 45.08116 -74.99217 36836 ft 499 kts 72°
2026-04-29 23:31 45.10409 -74.89948 36830 ft 499 kts 72°
2026-04-29 23:31 45.12692 -74.80669 36816 ft 498 kts 72°
2026-04-29 23:32 45.15023 -74.71429 36844 ft 498 kts 70°
2026-04-29 23:32 45.17504 -74.62265 36839 ft 498 kts 70°
2026-04-29 23:33 45.20007 -74.53124 36835 ft 497 kts 70°
2026-04-29 23:33 45.22463 -74.43945 36840 ft 498 kts 70°
2026-04-29 23:34 45.24883 -74.34756 36830 ft 497 kts 70°
2026-04-29 23:34 45.27292 -74.25576 36835 ft 496 kts 70°
2026-04-29 23:35 45.29700 -74.16398 36850 ft 495 kts 71°
2026-04-29 23:35 45.32099 -74.07231 36838 ft 495 kts 71°
2026-04-29 23:36 45.34490 -73.98055 36827 ft 495 kts 71°
2026-04-29 23:36 45.36871 -73.88883 36832 ft 495 kts 71°
2026-04-29 23:37 45.39250 -73.79705 36819 ft 495 kts 71°
2026-04-29 23:37 45.41622 -73.70511 36834 ft 495 kts 71°
2026-04-29 23:38 45.43976 -73.61317 36819 ft 495 kts 71°
2026-04-29 23:38 45.46324 -73.52112 36829 ft 495 kts 71°
2026-04-29 23:39 45.48672 -73.42886 36803 ft 495 kts 71°
2026-04-29 23:39 45.51011 -73.33661 36814 ft 495 kts 71°
2026-04-29 23:40 45.53345 -73.24422 36827 ft 495 kts 71°
2026-04-29 23:40 45.55669 -73.15185 36831 ft 495 kts 71°
2026-04-29 23:41 45.57983 -73.05924 36861 ft 495 kts 71°
2026-04-29 23:41 45.60291 -72.96672 36835 ft 495 kts 71°
2026-04-29 23:42 45.62593 -72.87417 36854 ft 494 kts 71°
2026-04-29 23:42 45.64887 -72.78159 36869 ft 494 kts 71°
2026-04-29 23:43 45.67149 -72.68970 36876 ft 493 kts 71°
2026-04-29 23:43 45.69416 -72.59713 36873 ft 493 kts 72°
2026-04-29 23:44 45.71678 -72.50455 36863 ft 493 kts 71°
2026-04-29 23:44 45.73937 -72.41205 36850 ft 492 kts 71°
2026-04-29 23:45 45.76183 -72.31935 36856 ft 492 kts 72°
2026-04-29 23:45 45.78417 -72.22667 36867 ft 492 kts 72°
2026-04-29 23:46 45.80650 -72.13394 36864 ft 492 kts 72°
2026-04-29 23:46 45.82874 -72.04111 36880 ft 492 kts 72°
2026-04-29 23:47 45.85077 -71.94822 36872 ft 492 kts 72°
2026-04-29 23:47 45.87280 -71.85531 36890 ft 492 kts 72°
2026-04-29 23:48 45.89485 -71.76230 36892 ft 492 kts 72°
2026-04-29 23:48 45.91676 -71.66938 36901 ft 492 kts 72°
2026-04-29 23:49 45.93856 -71.57630 36903 ft 491 kts 72°
2026-04-29 23:49 45.96021 -71.48325 36885 ft 491 kts 72°
2026-04-29 23:50 45.98191 -71.39005 36889 ft 492 kts 72°
2026-04-29 23:51 46.01421 -71.25068 36897 ft 492 kts 72°
2026-04-29 23:51 46.03572 -71.15720 36909 ft 492 kts 72°
2026-04-29 23:52 46.05712 -71.06359 36920 ft 492 kts 72°
2026-04-29 23:52 46.07845 -70.96996 36900 ft 492 kts 72°
2026-04-29 23:53 46.09963 -70.87628 36918 ft 492 kts 72°
2026-04-29 23:53 46.12078 -70.78236 36921 ft 492 kts 72°
2026-04-29 23:54 46.14194 -70.68846 36937 ft 492 kts 72°
2026-04-29 23:54 46.16306 -70.59453 36950 ft 492 kts 72°
2026-04-29 23:55 46.18404 -70.50057 36943 ft 492 kts 72°
2026-04-29 23:55 46.20484 -70.40655 36959 ft 491 kts 72°
2026-04-29 23:56 46.22553 -70.31258 36971 ft 491 kts 72°
2026-04-29 23:56 46.24612 -70.21876 36972 ft 490 kts 72°
2026-04-29 23:57 46.26635 -70.12465 36988 ft 490 kts 73°
2026-04-29 23:57 46.28628 -70.03051 36990 ft 489 kts 73°
2026-04-29 23:58 46.30615 -69.93646 36980 ft 488 kts 73°
2026-04-29 23:58 46.32590 -69.84265 36996 ft 487 kts 73°
2026-04-29 23:59 46.34550 -69.74893 36999 ft 486 kts 73°
2026-04-29 23:59 46.36512 -69.65525 37015 ft 486 kts 73°
2026-04-30 00:00 46.38462 -69.56154 37019 ft 486 kts 73°
2026-04-30 00:00 46.40398 -69.46794 37029 ft 485 kts 73°
2026-04-30 00:01 46.42311 -69.37442 37039 ft 484 kts 73°
2026-04-30 00:01 46.44211 -69.28165 37041 ft 483 kts 73°
2026-04-30 00:02 46.46122 -69.18840 37034 ft 482 kts 73°
2026-04-30 00:02 46.48022 -69.09520 37039 ft 482 kts 74°
2026-04-30 00:03 46.49907 -69.00185 37040 ft 482 kts 74°
2026-04-30 00:03 46.51777 -68.90864 37034 ft 481 kts 74°
2026-04-30 00:04 46.53646 -68.81529 37046 ft 481 kts 74°
2026-04-30 00:04 46.55504 -68.72203 37045 ft 481 kts 74°
2026-04-30 00:05 46.57350 -68.62858 37051 ft 481 kts 74°
2026-04-30 00:05 46.59197 -68.53509 37056 ft 481 kts 74°
2026-04-30 00:06 46.61036 -68.44168 37063 ft 481 kts 74°
2026-04-30 00:06 46.62871 -68.34812 37067 ft 481 kts 74°
2026-04-30 00:07 46.64689 -68.25460 37078 ft 481 kts 74°
2026-04-30 00:07 46.66497 -68.16096 37069 ft 480 kts 74°
2026-04-30 00:08 46.68302 -68.06727 37067 ft 480 kts 74°
2026-04-30 00:08 46.70100 -67.97363 37058 ft 480 kts 74°
2026-04-30 00:09 46.71887 -67.87984 37060 ft 480 kts 75°
2026-04-30 00:09 46.73662 -67.78601 37068 ft 480 kts 75°
2026-04-30 00:10 46.75441 -67.69217 37069 ft 480 kts 75°
2026-04-30 00:10 46.77206 -67.59829 37071 ft 480 kts 75°
2026-04-30 00:11 46.78964 -67.50431 37074 ft 480 kts 75°
2026-04-30 00:11 46.80715 -67.41026 37088 ft 480 kts 75°
2026-04-30 00:12 46.82441 -67.31685 37079 ft 480 kts 75°
2026-04-30 00:12 46.84172 -67.22271 37096 ft 480 kts 75°
2026-04-30 00:13 46.85903 -67.12858 37092 ft 480 kts 75°
2026-04-30 00:13 46.87585 -67.03416 37099 ft 480 kts 77°
2026-04-30 00:14 46.88936 -66.93875 37081 ft 479 kts 81°
2026-04-30 00:14 46.90061 -66.84267 37088 ft 479 kts 82°
2026-04-30 00:15 46.91194 -66.74656 37096 ft 479 kts 81°
2026-04-30 00:15 46.92393 -66.65066 37100 ft 480 kts 81°
2026-04-30 00:16 46.93613 -66.55464 37107 ft 480 kts 81°
2026-04-30 00:16 46.94812 -66.45867 37111 ft 480 kts 81°
2026-04-30 00:17 46.95989 -66.36259 37111 ft 479 kts 82°
2026-04-30 00:17 46.96960 -66.28269 37116 ft 479 kts 82°
2026-04-30 00:18 46.98124 -66.18662 37133 ft 479 kts 82°
2026-04-30 00:18 46.99284 -66.09058 37135 ft 479 kts 82°
2026-04-30 00:19 47.00430 -65.99447 37145 ft 479 kts 82°
2026-04-30 00:19 47.01567 -65.89839 37137 ft 478 kts 82°
2026-04-30 00:20 47.02706 -65.80231 37147 ft 478 kts 82°
2026-04-30 00:20 47.03833 -65.70630 37150 ft 478 kts 82°
2026-04-30 00:21 47.04937 -65.61027 37154 ft 478 kts 83°
2026-04-30 00:21 47.06035 -65.51428 37155 ft 478 kts 82°
2026-04-30 00:22 47.07139 -65.41820 37138 ft 477 kts 83°
2026-04-30 00:22 47.08230 -65.32214 37148 ft 477 kts 83°
2026-04-30 00:23 47.09311 -65.22603 37152 ft 477 kts 83°
2026-04-30 00:23 47.10382 -65.12992 37154 ft 477 kts 83°
2026-04-30 00:24 47.11448 -65.03374 37161 ft 477 kts 83°
2026-04-30 00:24 47.12506 -64.93756 37161 ft 477 kts 83°
2026-04-30 00:25 47.13549 -64.84137 37146 ft 477 kts 84°
2026-04-30 00:25 47.14582 -64.74563 37153 ft 477 kts 84°
2026-04-30 00:26 47.15621 -64.64866 37158 ft 478 kts 84°
2026-04-30 00:26 47.16635 -64.55289 37168 ft 478 kts 84°
2026-04-30 00:27 47.17650 -64.45646 37169 ft 478 kts 84°
2026-04-30 00:27 47.18653 -64.36003 37160 ft 477 kts 84°
2026-04-30 00:28 47.19658 -64.26353 37170 ft 477 kts 84°
2026-04-30 00:28 47.20657 -64.16710 37171 ft 477 kts 85°
2026-04-30 00:29 47.21642 -64.07066 37174 ft 477 kts 85°
2026-04-30 00:29 47.22603 -63.97416 37181 ft 477 kts 85°
2026-04-30 00:30 47.23567 -63.87772 37182 ft 477 kts 85°
2026-04-30 00:30 47.24536 -63.78115 37185 ft 477 kts 85°
2026-04-30 00:31 47.25482 -63.68469 37188 ft 477 kts 85°
2026-04-30 00:31 47.26430 -63.58814 37193 ft 477 kts 85°
2026-04-30 00:32 47.27364 -63.49154 37190 ft 476 kts 85°
2026-04-30 00:32 47.28284 -63.39490 37176 ft 476 kts 85°
2026-04-30 00:33 47.29198 -63.29832 37196 ft 476 kts 85°
2026-04-30 00:33 47.30103 -63.20173 37204 ft 476 kts 85°
2026-04-30 00:34 47.31001 -63.10520 37210 ft 476 kts 86°
2026-04-30 00:34 47.31895 -63.00870 37210 ft 475 kts 86°
2026-04-30 00:35 47.32783 -62.91210 37218 ft 475 kts 86°
2026-04-30 00:35 47.33661 -62.81553 37202 ft 475 kts 86°
2026-04-30 00:36 47.34522 -62.71963 37218 ft 475 kts 86°
2026-04-30 00:36 47.35376 -62.62304 37227 ft 475 kts 86°
2026-04-30 00:37 47.36221 -62.52641 37225 ft 475 kts 86°
2026-04-30 00:37 47.37065 -62.42969 37235 ft 475 kts 86°
2026-04-30 00:38 47.37906 -62.33303 37223 ft 475 kts 86°
2026-04-30 00:38 47.38725 -62.23634 37231 ft 475 kts 86°
2026-04-30 00:39 47.39532 -62.13962 37235 ft 475 kts 86°
2026-04-30 00:39 47.40343 -62.04299 37240 ft 474 kts 86°
2026-04-30 00:40 47.41141 -61.94646 37242 ft 474 kts 86°
2026-04-30 00:40 47.41927 -61.84983 37213 ft 474 kts 86°
2026-04-30 00:41 47.42690 -61.75331 37233 ft 473 kts 87°
2026-04-30 00:41 47.43357 -61.65688 37237 ft 472 kts 88°
2026-04-30 00:42 47.43965 -61.56037 37237 ft 471 kts 88°
2026-04-30 00:42 47.44573 -61.46397 37241 ft 471 kts 88°
2026-04-30 00:43 47.45184 -61.36766 37248 ft 471 kts 88°
2026-04-30 00:43 47.45789 -61.27129 37249 ft 471 kts 88°
2026-04-30 00:44 47.46387 -61.17503 37251 ft 470 kts 88°
2026-04-30 00:44 47.46969 -61.07947 37262 ft 470 kts 88°
2026-04-30 00:45 47.47548 -60.98328 37260 ft 470 kts 88°
2026-04-30 00:45 47.48117 -60.88711 37265 ft 470 kts 88°
2026-04-30 00:46 47.48681 -60.79094 37261 ft 469 kts 88°
2026-04-30 00:46 47.49235 -60.69475 37273 ft 469 kts 88°
2026-04-30 00:47 47.49782 -60.59869 37274 ft 469 kts 88°
2026-04-30 00:47 47.50315 -60.50265 37286 ft 469 kts 88°
2026-04-30 00:48 47.50846 -60.40657 37290 ft 469 kts 88°
2026-04-30 00:48 47.51374 -60.31056 37281 ft 468 kts 87°
2026-04-30 00:49 47.51889 -60.21445 37289 ft 468 kts 88°
2026-04-30 00:49 47.52389 -60.11855 37306 ft 468 kts 88°
2026-04-30 00:50 47.52882 -60.02263 37299 ft 468 kts 88°
2026-04-30 00:50 47.53368 -59.92670 37301 ft 467 kts 87°
2026-04-30 00:51 47.53851 -59.83075 37312 ft 467 kts 88°
2026-04-30 00:51 47.54322 -59.73484 37304 ft 467 kts 87°
2026-04-30 00:52 47.54784 -59.63897 37314 ft 467 kts 87°
2026-04-30 00:52 47.55243 -59.54310 37314 ft 467 kts 87°
2026-04-30 00:53 47.55694 -59.44733 37317 ft 467 kts 87°
2026-04-30 00:53 47.56133 -59.35145 37319 ft 467 kts 87°
2026-04-30 00:54 47.56563 -59.25567 37312 ft 466 kts 87°
2026-04-30 00:54 47.56987 -59.15984 37321 ft 466 kts 87°
2026-04-30 00:55 47.57403 -59.06401 37323 ft 466 kts 87°
2026-04-30 00:55 47.58013 -58.92024 37323 ft 466 kts 87°
2026-04-30 00:56 47.58407 -58.82451 37324 ft 466 kts 87°
2026-04-30 00:56 47.58789 -58.72928 37326 ft 466 kts 87°
2026-04-30 00:57 47.59166 -58.63349 37334 ft 466 kts 87°
2026-04-30 00:57 47.59534 -58.53772 37335 ft 466 kts 87°
2026-04-30 00:58 47.59896 -58.44186 37337 ft 466 kts 88°
2026-04-30 00:58 47.60253 -58.34612 37340 ft 466 kts 88°
2026-04-30 00:59 47.60606 -58.25027 37341 ft 466 kts 87°
2026-04-30 00:59 47.60947 -58.15439 37334 ft 466 kts 87°
2026-04-30 01:00 47.61267 -58.05855 37339 ft 466 kts 88°
2026-04-30 01:00 47.61587 -57.96278 37341 ft 466 kts 88°
2026-04-30 01:01 47.61906 -57.86678 37341 ft 466 kts 87°
2026-04-30 01:01 47.62214 -57.77095 37346 ft 465 kts 88°
2026-04-30 01:02 47.62516 -57.67515 37339 ft 465 kts 87°
2026-04-30 01:02 47.62809 -57.57950 37350 ft 465 kts 87°
2026-04-30 01:03 47.63089 -57.48376 37345 ft 464 kts 87°
2026-04-30 01:03 47.63359 -57.38815 37344 ft 464 kts 87°
2026-04-30 01:04 47.63583 -57.30869 37344 ft 464 kts 87°
2026-04-30 01:04 47.63845 -57.21309 37344 ft 464 kts 87°
2026-04-30 01:05 47.64100 -57.11768 37353 ft 463 kts 87°
2026-04-30 01:05 47.64343 -57.02236 37344 ft 462 kts 87°
2026-04-30 01:06 47.64578 -56.92716 37345 ft 462 kts 87°
2026-04-30 01:06 47.64801 -56.83208 37341 ft 461 kts 87°
2026-04-30 01:07 47.65013 -56.73714 37324 ft 461 kts 87°
2026-04-30 01:07 47.65229 -56.64214 37328 ft 460 kts 87°
2026-04-30 01:08 47.65436 -56.54730 37321 ft 460 kts 88°
2026-04-30 01:08 47.65623 -56.45240 37312 ft 460 kts 88°
2026-04-30 01:09 47.65811 -56.35755 37308 ft 460 kts 88°
2026-04-30 01:09 47.65992 -56.26287 37307 ft 460 kts 88°
2026-04-30 01:10 47.66165 -56.16878 37295 ft 459 kts 88°
2026-04-30 01:10 47.66327 -56.07413 37293 ft 459 kts 89°
2026-04-30 01:11 47.66478 -55.97960 37289 ft 458 kts 89°
2026-04-30 01:11 47.66628 -55.88507 37293 ft 458 kts 89°
2026-04-30 01:12 47.66769 -55.79063 37293 ft 458 kts 89°
2026-04-30 01:12 47.66898 -55.69621 37287 ft 458 kts 90°
2026-04-30 01:13 47.66989 -55.62521 37300 ft 457 kts 90°
2026-04-30 01:13 47.67049 -55.57812 37312 ft 456 kts 90°
2026-04-30 01:14 47.67138 -55.50749 37316 ft 456 kts 90°
2026-04-30 01:14 47.67201 -55.45208 37316 ft 455 kts 90°
2026-04-30 01:15 47.67289 -55.36985 37330 ft 455 kts 90°
2026-04-30 01:15 47.67309 -55.35019 37339 ft 455 kts 90°
2026-04-30 01:16 47.67409 -55.25636 37335 ft 455 kts 90°
2026-04-30 01:16 47.67501 -55.16250 37346 ft 455 kts 90°
2026-04-30 01:17 47.67581 -55.06876 37359 ft 454 kts 90°
2026-04-30 01:17 47.67648 -54.97525 37376 ft 453 kts 90°
2026-04-30 01:18 47.67680 -54.92852 37179 ft 452 kts 90°
2026-04-30 01:18 47.67713 -54.88188 36532 ft 453 kts 90°
2026-04-30 01:18 47.67743 -54.83496 35673 ft 456 kts 91°
2026-04-30 01:18 47.67770 -54.78776 34757 ft 460 kts 91°
2026-04-30 01:19 47.67794 -54.74016 33803 ft 463 kts 91°
2026-04-30 01:19 47.67819 -54.69228 32796 ft 465 kts 91°
2026-04-30 01:19 47.67844 -54.64436 31724 ft 468 kts 91°
2026-04-30 01:19 47.67867 -54.59634 30677 ft 464 kts 91°
2026-04-30 01:20 47.67878 -54.56946 29934 ft 464 kts 91°
2026-04-30 01:20 47.67893 -54.53067 28842 ft 464 kts 91°
2026-04-30 01:20 47.67906 -54.48295 27611 ft 461 kts 91°
2026-04-30 01:20 47.67917 -54.43564 26382 ft 458 kts 91°
2026-04-30 01:21 47.67926 -54.38852 25197 ft 455 kts 91°
2026-04-30 01:21 47.67934 -54.34178 24075 ft 451 kts 91°
2026-04-30 01:21 47.67934 -54.34127 24062 ft 451 kts 91°
2026-04-30 01:21 47.67940 -54.29604 22825 ft 448 kts 91°
2026-04-30 01:22 47.67945 -54.24994 21676 ft 445 kts 90°
2026-04-30 01:22 47.67948 -54.20457 20806 ft 435 kts 90°